Location: Keppel Henge
(44.7900°N, 80.9447°W)
Time: 08:11:27
(UTC-05:00)

Vanguard 3 - All Passes

Search period start: 13 December 2017 00:00
Search period end: 23 December 2017 00:00
Orbit: 509 x 3263 km, 33.3° (Epoch: 13 December)

Date Brightness Start Highest point End Pass type
(mag) Time Alt. Az. Time Alt. Az. Time Alt. Az.
13 Dec - 13:52:37 10° SSW 13:54:47 15° S 13:56:55 10° SE daylight
13 Dec - 16:03:18 10° SW 16:05:29 15° S 16:07:59 10° SSE daylight
14 Dec - 12:39:43 10° SSW 12:41:41 13° S 12:43:28 10° SE daylight
14 Dec - 14:50:08 10° SW 14:52:24 15° S 14:54:44 10° SE daylight
15 Dec - 11:27:06 10° S 11:28:26 11° SSE 11:29:40 10° SSE daylight
15 Dec - 13:36:49 10° SW 13:39:20 16° S 13:41:40 10° SE daylight
15 Dec - 15:48:35 10° SW 15:50:01 12° S 15:51:33 10° SSE daylight
16 Dec - 12:23:17 10° SSW 12:26:13 16° S 12:28:42 10° SE daylight
16 Dec - 14:34:47 10° SW 14:36:56 14° S 14:39:03 10° SSE daylight
17 Dec - 11:09:36 10° SSW 11:12:57 15° S 11:15:39 10° SE daylight
17 Dec - 13:20:58 10° SW 13:23:52 17° S 13:26:25 10° SE daylight
18 Dec - 09:56:07 10° SSW 09:59:27 13° SSE 10:02:12 10° SE daylight
18 Dec - 12:06:55 10° SW 12:10:45 19° S 12:13:46 10° SE daylight
18 Dec - 14:19:22 10° SW 14:21:26 14° SSW 14:23:24 10° SSE daylight
19 Dec - 08:43:46 10° S 08:45:42 11° SSE 08:47:27 10° SSE daylight
19 Dec - 10:52:38 10° SW 10:57:27 20° S 11:01:00 10° SE daylight
19 Dec - 13:05:02 10° SW 13:08:24 19° S 13:11:12 10° SE daylight
20 Dec - 09:38:20 10° SSW 09:43:53 18° SSE 09:47:57 10° SE daylight
20 Dec - 11:50:32 10° SW 11:55:16 23° S 11:58:46 10° SE daylight
20 Dec - 14:03:51 10° SW 14:05:55 13° SSW 14:07:47 10° SSE daylight
21 Dec - 08:24:27 10° SSW 08:30:01 16° SSE 08:34:18 10° SE daylight
21 Dec - 10:35:45 10° SW 10:41:55 24° S 10:46:09 10° ESE daylight
21 Dec - 12:49:01 10° WSW 12:52:54 20° SSW 12:55:58 10° SE daylight
22 Dec - 07:11:55 10° S 07:15:50 12° SSE 07:19:12 10° SE visible
22 Dec - 09:20:53 10° SW 09:28:16 23° S 09:33:16 10° ESE daylight
22 Dec - 11:34:05 10° WSW 11:39:46 26° S 11:43:42 10° SE daylight
22 Dec - 13:48:15 10° SW 13:50:20 13° SSW 13:52:12 10° S daylight
